BEIDOU-3 M8

Last updated on May 15, 2019, 3:07 a.m. UTC

1 43246U 18029B   19134.36409569 -.00000101  00000-0  10000-3 0  9996
2 43246  55.2015  29.1542 0005521 331.4134 208.5140  1.86233045  7632
UTC
Height (km)
Latitude
Longitude
Inclination
Orbital Period
UTC large
Height (km)
Speed (km/s)
/
Latitude / Longitude
Inclination (degrees)
Orbital Period (minutes)
Azimuth
Elevation
Range (km)
Doppler Factor
iOS Compass Heading
iOS Angle

Next 30 passes for location: Hong Kong

Rise time Rise Azimuth (degrees) Set time Set Azimuth (degrees) Duration Max altitude (degrees)

No matching passes for this satellites